QPF
0.00 0.00 0.00 0.00 0.00 0.00 0.00 0.01 0.02 0.01 0.01 0.02 0.01 0.01 0.02 0.02 0.03 0.00 0.00 0.02 0.02 0.02 0.05 0.04 0.01 0.00 0.01 0.00 0.00 0.00 0.00 0.00 0.00 0.01 0.00 0.00 0.01 0.04 0.02 0.00 0.00 0.00 0.00
0.00 0.00 0.00 0.00 0.00 0.00 0.00 0.00 0.00 0.00 0.01 0.01 0.01 0.01 0.02 0.03 0.04 0.00 0.01 0.04 0.07 0.07 0.08 0.01 0.02 0.00 0.01 0.02 0.00 0.00 0.00 0.00 0.00 0.01 0.00 0.00 0.04 0.04 0.00 0.00 0.01 0.00 0.00
0.00 0.00 0.00 0.00 0.00 0.00 0.00 0.00 0.00 0.00 0.00 0.00 0.00 0.00 0.00 0.01 0.01 0.00 0.00 0.02 0.03 0.05 0.01 0.00 0.00 0.00 0.00 0.01 0.01 0.02 0.00 0.00 0.00 0.00 0.01 0.00 0.00 0.00 0.00 0.01 0.00 0.00 0.00
0.00 0.00 0.00 0.00 0.00 0.00 0.00 0.00 0.00 0.00 0.00 0.00 0.00 0.00 0.00 0.00 0.00 0.00 0.00 0.00 0.00 0.00 0.00 0.00 0.00 0.00 0.00 0.02 0.04 0.02 0.00 0.00 0.00 0.01 0.00 0.00 0.00 0.02 0.04 0.02 0.00 0.00 0.00
0.00 0.00 0.00 0.00 0.00 0.00 0.00 0.00 0.00 0.00 0.00 0.00 0.00 0.00 0.00 0.00 0.00 0.00 0.00 0.00 0.00 0.00 0.00 0.00 0.00 0.00 0.01 0.08 0.08 0.02 0.00 0.02 0.03 0.00 0.00 0.01 0.00 0.01 0.02 0.00 0.00 0.00 0.00
0.00 0.00 0.00 0.00 0.00 0.00 0.00 0.00 0.00 0.00 0.00 0.00 0.00 0.00 0.00 0.00 0.00 0.00 0.00 0.00 0.00 0.02 0.00 0.01 0.02 0.00 0.00 0.04 0.08 0.01 0.00 0.03 0.01 0.00 0.01 0.01 0.00 0.02 0.04 0.01 0.00 0.00 0.00
0.00 0.00 0.00 0.00 0.00 0.00 0.00 0.00 0.00 0.00 0.00 0.00 0.00 0.00 0.00 0.00 0.00 0.00 0.00 0.00 0.02 0.05 0.00 0.00 0.00 0.01 0.01 0.09 0.06 0.00 0.01 0.01 0.00 0.00 0.00 0.00 0.00 0.01 0.00 0.01 0.00 0.00 0.00
0.00 0.00 0.00 0.00 0.00 0.01 0.00 0.00 0.00 0.00 0.00 0.00 0.00 0.00 0.00 0.00 0.01 0.01 0.00 0.03 0.01 0.06 0.02 0.00 0.00 0.01 0.03 0.11 0.05 0.01 0.01 0.00 0.00 0.00 0.00 0.00 0.00 0.00 0.00 0.01 0.02 0.00 0.00
0.00 0.00 0.00 0.00 0.00 0.00 0.00 0.00 0.00 0.00 0.00 0.00 0.00 0.00 0.00 0.00 0.01 0.00 0.00 0.01 0.01 0.05 0.04 0.03 0.04 0.07 0.04 0.06 0.20 0.05 0.01 0.00 0.00 0.01 0.01 0.00 0.00 0.00 0.00 0.00 0.01 0.00 0.01
0.00 0.01 0.00 0.01 0.00 0.00 0.00 0.00 0.02 0.01 0.00 0.00 0.00 0.00 0.00 0.00 0.00 0.00 0.00 0.00 0.02 0.05 0.04 0.01 0.05 0.12 0.09 0.10 0.06 0.03 0.00 0.06 0.00 0.02 0.04 0.01 0.00 0.00 0.01 0.00 0.00 0.03 0.03
0.00 0.00 0.01 0.03 0.03 0.06 0.03 0.02 0.01 0.03 0.00 0.00 0.00 0.00 0.00 0.00 0.00 0.00 0.01 0.01 0.00 0.00 0.00 0.01 0.05 0.07 0.11 0.14 0.11 0.06 0.01 0.02 0.03 0.01 0.01 0.01 0.00 0.01 0.05 0.05 0.00 0.01 0.03
0.00 0.00 0.00 0.01 0.07 0.08 0.07 0.08 0.08 0.07 0.02 0.00 0.00 0.01 0.01 0.00 0.00 0.01 0.02 0.01 0.00 0.00 0.00 0.03 0.03 0.02 0.02 0.01 0.06 0.05 0.01 0.00 0.01 0.01 0.00 0.01 0.00 0.00 0.06 0.10 0.05 0.00 0.01
0.00 0.00 0.00 0.00 0.01 0.03 0.01 0.06 0.11 0.12 0.11 0.04 0.01 0.06 0.08 0.11 0.06 0.00 0.06 0.08 0.01 0.01 0.02 0.03 0.03 0.01 0.02 0.01 0.01 0.03 0.01 0.00 0.00 0.00 0.00 0.00 0.01 0.00 0.03 0.08 0.07 0.02 0.00
0.00 0.00 0.00 0.00 0.00 0.01 0.08 0.06 0.08 0.06 0.10 0.06 0.12 0.11 0.09 0.08 0.06 0.05 0.04 0.17 0.17 0.03 0.01 0.04 0.03 0.01 0.02 0.00 0.00 0.01 0.03 0.01 0.00 0.00 0.00 0.00 0.02 0.02 0.01 0.07 0.04 0.05 0.00
0.00 0.00 0.00 0.00 0.01 0.04 0.03 0.05 0.04 0.01 0.04 0.05 0.03 0.02 0.01 0.03 0.08 0.08 0.07 0.11 0.10 0.08 0.03 0.08 0.02 0.00 0.01 0.02 0.00 0.00 0.00 0.00 0.00 0.00 0.00 0.01 0.04 0.03 0.03 0.07 0.03 0.00 0.03
0.00 0.00 0.00 0.00 0.01 0.01 0.01 0.02 0.04 0.05 0.08 0.01 0.02 0.01 0.02 0.03 0.23 0.46 0.16 0.11 0.15 0.05 0.00 0.05 0.08 0.04 0.01 0.01 0.00 0.00 0.01 0.00 0.01 0.00 0.00 0.01 0.03 0.08 0.11 0.14 0.13 0.07 0.10
0.00 0.00 0.01 0.00 0.00 0.00 0.01 0.01 0.01 0.01 0.00 0.00 0.00 0.01 0.01 0.04 0.06 0.09 0.17 0.11 0.12 0.16 0.11 0.11 0.10 0.06 0.04 0.03 0.00 0.00 0.01 0.01 0.00 0.00 0.00 0.00 0.01 0.04 0.11 0.04 0.10 0.20 0.41
0.00 0.00 0.01 0.00 0.00 0.00 0.00 0.00 0.00 0.00 0.03 0.06 0.05 0.01 0.03 0.02 0.04 0.07 0.08 0.05 0.05 0.02 0.00 0.02 0.04 0.03 0.08 0.05 0.03 0.01 0.05 0.11 0.03 0.03 0.00 0.00 0.00 0.00 0.02 0.04 0.04 0.15 0.14
0.00 0.00 0.02 0.00 0.01 0.01 0.00 0.00 0.00 0.00 0.00 0.00 0.01 0.00 0.05 0.04 0.05 0.09 0.03 0.03 0.02 0.01 0.00 0.00 0.01 0.02 0.07 0.06 0.02 0.02 0.05 0.09 0.09 0.09 0.03 0.02 0.01 0.00 0.00 0.02 0.06 0.14 0.12
0.00 0.00 0.00 0.00 0.01 0.01 0.01 0.01 0.00 0.04 0.02 0.01 0.00 0.00 0.00 0.01 0.02 0.02 0.05 0.05 0.03 0.03 0.00 0.00 0.00 0.01 0.04 0.08 0.02 0.00 0.02 0.05 0.03 0.02 0.09 0.09 0.01 0.06 0.10 0.03 0.04 0.02 0.03
0.00 0.00 0.02 0.06 0.03 0.01 0.01 0.01 0.05 0.12 0.12 0.14 0.01 0.00 0.00 0.00 0.00 0.00 0.01 0.03 0.05 0.07 0.02 0.02 0.04 0.05 0.01 0.06 0.04 0.01 0.03 0.05 0.04 0.01 0.08 0.06 0.01 0.02 0.05 0.00 0.00 0.01 0.05
0.00 0.00 0.05 0.06 0.10 0.02 0.00 0.01 0.02 0.03 0.06 0.05 0.01 0.00 0.00 0.00 0.00 0.00 0.00 0.03 0.07 0.07 0.06 0.05 0.03 0.05 0.01 0.03 0.02 0.04 0.04 0.04 0.00 0.00 0.01 0.00 0.00 0.01 0.02 0.02 0.01 0.00 0.03
0.00 0.00 0.00 0.01 0.02 0.00 0.00 0.00 0.00 0.00 0.00 0.00 0.00 0.00 0.00 0.00 0.00 0.00 0.00 0.00 0.01 0.02 0.05 0.14 0.16 0.09 0.07 0.04 0.04 0.04 0.06 0.06 0.01 0.00 0.00 0.00 0.01 0.02 0.00 0.06 0.03 0.02 0.01
0.00 0.00 0.00 0.00 0.00 0.00 0.00 0.00 0.00 0.00 0.00 0.00 0.00 0.00 0.00 0.00 0.00 0.00 0.00 0.00 0.01 0.05 0.01 0.02 0.08 0.08 0.10 0.08 0.05 0.01 0.02 0.03 0.03 0.00 0.00 0.00 0.00 0.01 0.01 0.00 0.00 0.00 0.00
0.00 0.00 0.00 0.00 0.00 0.00 0.00 0.00 0.00 0.00 0.00 0.00 0.00 0.00 0.00 0.00 0.00 0.00 0.01 0.01 0.04 0.06 0.00 0.00 0.04 0.07 0.08 0.09 0.06 0.05 0.03 0.01 0.01 0.00 0.00 0.00 0.00 0.00 0.00 0.00 0.00 0.00 0.00
0.00 0.00 0.00 0.00 0.00 0.00 0.00 0.00 0.00 0.00 0.00 0.00 0.00 0.00 0.00 0.00 0.01 0.01 0.03 0.06 0.11 0.11 0.05 0.01 0.05 0.14 0.14 0.12 0.11 0.06 0.03 0.03 0.02 0.04 0.07 0.05 0.00 0.00 0.00 0.00 0.00 0.00 0.00
MSLP
1011.09 1012.26 1013.54 1013.57 1013.96 1014.16 1014.27 1014.50 1014.70 1015.01 1015.31 1015.65 1016.07 1016.47 1016.73 1016.90 1017.23 1017.34 1017.55 1017.67 1017.78 1018.00 1018.06 1018.21 1018.22 1018.35 1018.50 1018.53 1018.74 1018.89 1019.04 1019.17 1019.30 1019.55 1019.73 1019.87 1019.99 1020.17 1020.21 1020.03 1019.75 1019.68 1020.42
1010.98 1012.34 1013.64 1014.00 1014.16 1014.44 1014.62 1014.79 1015.08 1015.27 1015.50 1015.81 1016.29 1016.60 1016.87 1017.17 1017.41 1017.56 1017.63 1017.75 1018.02 1018.25 1018.19 1018.34 1018.36 1018.37 1018.59 1018.59 1018.81 1018.96 1019.19 1019.36 1019.55 1019.72 1019.93 1020.03 1020.36 1020.36 1020.36 1020.27 1019.84 1020.42 1020.69
1011.13 1012.44 1013.64 1014.30 1014.53 1014.84 1014.97 1015.12 1015.38 1015.63 1015.88 1016.23 1016.43 1016.83 1017.13 1017.34 1017.48 1017.81 1017.90 1018.09 1018.04 1018.29 1018.31 1018.41 1018.51 1018.48 1018.62 1018.81 1018.91 1019.17 1019.31 1019.55 1019.72 1019.84 1019.76 1018.91 1019.82 1020.45 1020.52 1020.66 1020.66 1020.88 1020.96
1011.45 1012.58 1013.47 1014.74 1014.96 1015.20 1015.26 1015.42 1015.63 1015.87 1016.20 1016.55 1016.71 1017.04 1017.25 1017.38 1017.61 1017.72 1018.00 1018.20 1018.19 1018.29 1018.47 1018.56 1018.57 1018.68 1018.83 1018.96 1019.14 1019.35 1019.53 1019.72 1019.89 1019.88 1019.00 1018.52 1019.26 1020.66 1020.70 1020.87 1021.01 1021.14 1021.29
1011.85 1012.39 1013.67 1014.58 1014.95 1015.27 1015.47 1015.73 1016.00 1016.22 1016.53 1016.80 1016.94 1017.15 1017.33 1017.51 1017.71 1017.79 1017.96 1018.13 1018.25 1018.37 1018.53 1018.70 1018.75 1018.80 1018.95 1019.17 1019.30 1019.53 1019.69 1019.89 1020.11 1019.73 1019.27 1019.00 1019.31 1020.59 1020.94 1021.08 1021.27 1021.34 1021.31
1011.86 1012.34 1014.26 1014.76 1015.15 1015.52 1015.80 1016.13 1016.42 1016.52 1016.81 1017.09 1017.22 1017.39 1017.55 1017.63 1017.82 1017.96 1018.16 1018.21 1018.34 1018.43 1018.60 1018.74 1018.89 1018.95 1019.06 1019.14 1019.57 1019.62 1019.80 1020.07 1020.06 1018.95 1019.44 1019.73 1019.14 1020.61 1021.06 1021.14 1021.25 1021.44 1021.62
1012.24 1012.70 1014.32 1015.04 1015.47 1015.63 1015.90 1016.21 1016.56 1016.77 1016.83 1017.09 1017.32 1017.53 1017.71 1017.84 1018.00 1018.11 1018.28 1018.42 1018.47 1018.60 1018.64 1018.80 1018.92 1019.02 1019.24 1019.36 1019.62 1019.78 1019.94 1020.04 1019.23 1019.27 1019.34 1019.60 1019.67 1020.79 1021.11 1021.36 1021.52 1021.64 1021.79
1012.52 1013.12 1014.31 1015.35 1015.61 1015.86 1016.03 1016.22 1016.54 1016.86 1017.10 1017.28 1017.51 1017.73 1017.95 1018.08 1018.17 1018.27 1018.48 1018.54 1018.55 1018.63 1018.72 1018.96 1018.98 1019.06 1019.19 1019.54 1019.59 1019.86 1020.03 1020.06 1019.58 1019.18 1019.26 1019.48 1020.41 1020.86 1021.12 1021.52 1021.71 1021.82 1021.91
1012.91 1013.37 1014.38 1015.04 1015.64 1016.04 1016.21 1016.36 1016.67 1016.83 1017.05 1017.39 1017.62 1017.81 1017.96 1018.16 1018.44 1018.60 1018.63 1018.66 1018.61 1018.66 1018.78 1018.97 1019.00 1019.28 1019.30 1019.60 1019.71 1019.94 1020.15 1020.17 1019.22 1019.26 1019.25 1019.29 1020.57 1021.07 1021.14 1021.47 1021.81 1021.96 1022.12
1013.27 1013.59 1014.09 1014.76 1015.30 1015.79 1016.03 1016.57 1016.81 1017.05 1017.08 1017.35 1017.65 1017.88 1018.07 1018.25 1018.44 1018.75 1018.76 1018.65 1018.75 1018.84 1018.76 1018.81 1019.06 1019.43 1019.58 1019.85 1020.01 1019.99 1020.19 1020.32 1019.41 1019.11 1019.73 1019.33 1020.47 1021.08 1021.19 1021.47 1021.72 1021.94 1022.17
1013.61 1013.82 1014.03 1014.80 1015.02 1015.64 1015.70 1016.33 1016.97 1017.32 1017.59 1017.60 1017.67 1017.98 1018.17 1017.41 1017.64 1018.16 1018.31 1018.70 1018.83 1018.89 1018.85 1018.93 1019.01 1019.30 1019.59 1019.79 1020.03 1020.30 1020.24 1019.91 1019.47 1018.82 1019.34 1020.07 1020.63 1020.97 1021.23 1021.43 1021.69 1021.93 1022.16
1013.39 1013.72 1014.07 1014.34 1015.33 1015.65 1015.81 1016.17 1016.55 1016.76 1016.89 1016.98 1016.91 1017.19 1017.36 1017.07 1017.31 1017.72 1018.20 1018.82 1018.89 1018.91 1018.84 1018.83 1019.06 1019.20 1019.39 1019.50 1019.68 1020.02 1019.91 1019.32 1019.35 1019.22 1018.78 1020.00 1020.66 1020.86 1021.06 1021.39 1021.59 1021.77 1021.97
1013.27 1013.68 1014.07 1014.34 1014.75 1015.40 1015.01 1015.78 1016.54 1017.03 1016.94 1016.75 1016.89 1017.23 1017.53 1017.58 1017.98 1017.70 1017.76 1018.42 1018.45 1018.60 1017.70 1018.13 1018.42 1018.42 1018.65 1018.89 1018.87 1019.69 1019.37 1019.35 1019.24 1019.13 1018.86 1019.95 1020.50 1020.62 1020.88 1021.28 1021.49 1021.57 1021.84
1012.96 1013.39 1013.94 1014.27 1014.72 1014.97 1015.49 1015.64 1016.17 1016.53 1016.77 1016.75 1017.00 1017.29 1017.67 1017.73 1018.16 1018.27 1017.54 1018.46 1018.57 1017.61 1017.37 1017.36 1017.77 1017.75 1018.23 1018.75 1018.92 1019.22 1019.64 1019.58 1018.97 1019.00 1018.92 1019.82 1020.26 1020.37 1020.59 1020.96 1021.27 1021.41 1021.73
1012.67 1013.17 1013.62 1014.24 1014.80 1015.08 1015.28 1015.39 1015.78 1015.70 1015.77 1016.13 1016.57 1017.08 1017.41 1017.70 1018.13 1018.55 1018.31 1018.58 1018.46 1018.04 1017.57 1017.99 1017.45 1017.44 1017.69 1018.11 1018.68 1018.76 1018.69 1019.35 1019.35 1019.31 1018.95 1019.51 1019.96 1020.05 1020.25 1020.56 1020.99 1021.35 1021.62
1012.52 1012.98 1013.64 1014.17 1014.53 1014.91 1015.19 1015.38 1015.60 1015.53 1016.02 1016.16 1015.94 1016.21 1016.77 1016.97 1017.90 1018.03 1018.47 1018.74 1018.49 1018.04 1016.92 1016.97 1017.44 1017.45 1017.38 1017.60 1018.01 1018.22 1018.65 1018.45 1018.88 1018.88 1019.08 1018.55 1019.41 1019.73 1019.84 1020.20 1020.55 1021.11 1021.36
1012.39 1012.94 1013.44 1014.06 1014.15 1014.62 1014.91 1015.03 1015.21 1015.04 1015.61 1015.50 1015.65 1016.32 1016.35 1016.72 1017.10 1017.94 1018.47 1019.34 1018.08 1017.50 1017.41 1017.28 1017.44 1017.39 1017.58 1017.34 1017.60 1017.67 1018.26 1018.09 1018.34 1018.46 1018.81 1018.34 1018.17 1019.14 1019.46 1019.76 1020.23 1020.62 1020.97
1012.17 1012.74 1013.25 1013.50 1013.99 1014.46 1014.65 1014.76 1014.74 1014.74 1015.42 1015.58 1015.75 1015.32 1016.17 1016.25 1016.47 1016.83 1017.32 1017.62 1017.04 1017.05 1016.78 1016.46 1016.72 1016.89 1017.32 1017.57 1017.41 1017.47 1017.30 1017.93 1018.12 1018.29 1018.40 1018.24 1018.02 1017.78 1018.57 1019.17 1019.50 1019.82 1020.35
1012.03 1012.62 1013.17 1013.62 1013.91 1014.40 1014.61 1014.37 1014.63 1014.79 1015.03 1014.86 1015.00 1014.93 1015.58 1015.87 1016.11 1016.37 1016.07 1016.12 1015.97 1016.07 1015.88 1016.03 1016.23 1016.49 1016.95 1017.25 1017.21 1017.28 1017.38 1017.76 1017.86 1018.10 1018.17 1017.89 1018.15 1018.02 1017.47 1017.92 1018.73 1019.33 1019.52
1011.90 1012.50 1012.88 1013.20 1013.53 1014.10 1014.67 1014.67 1014.42 1014.68 1014.67 1014.78 1014.76 1014.87 1015.10 1015.14 1015.26 1015.33 1015.67 1015.62 1015.63 1015.40 1015.30 1015.46 1015.91 1016.02 1016.49 1016.96 1016.92 1016.92 1017.31 1017.46 1017.62 1017.51 1017.29 1017.79 1018.00 1017.90 1017.88 1017.66 1018.15 1018.59 1018.95
1012.27 1012.45 1012.80 1013.14 1013.51 1013.79 1014.26 1014.37 1014.45 1014.46 1014.66 1015.13 1014.69 1015.09 1015.17 1015.08 1015.16 1015.08 1014.67 1014.76 1015.12 1015.46 1015.31 1015.27 1015.71 1016.44 1016.15 1016.47 1017.07 1016.39 1016.58 1017.02 1017.30 1016.95 1016.81 1017.65 1017.51 1017.52 1017.52 1017.68 1017.93 1017.90 1017.89
1012.37 1012.72 1013.05 1013.96 1014.03 1014.10 1014.03 1014.40 1014.28 1014.60 1014.63 1014.77 1014.62 1014.82 1014.86 1014.79 1014.74 1014.82 1014.67 1014.49 1014.75 1015.10 1015.33 1015.29 1015.53 1015.76 1015.53 1015.62 1016.35 1015.95 1016.14 1016.01 1016.36 1016.54 1016.38 1016.74 1016.68 1017.04 1016.95 1016.84 1017.40 1017.41 1017.24
1012.47 1012.97 1013.61 1013.65 1013.82 1014.18 1014.38 1014.59 1014.66 1014.58 1014.59 1014.32 1014.21 1014.39 1014.29 1014.61 1014.54 1014.48 1014.45 1014.57 1014.62 1014.97 1015.02 1015.06 1015.26 1015.66 1015.91 1015.46 1016.48 1016.30 1015.95 1015.48 1015.44 1015.77 1016.12 1016.03 1015.95 1016.37 1016.12 1016.02 1016.50 1016.49 1016.46
1012.41 1013.10 1013.57 1014.17 1014.20 1014.12 1014.33 1014.23 1014.27 1014.09 1013.96 1014.11 1014.24 1014.24 1014.58 1014.28 1014.22 1014.04 1013.95 1013.99 1014.42 1014.66 1015.16 1015.42 1015.43 1015.55 1016.20 1016.14 1016.29 1015.95 1016.07 1015.85 1015.42 1015.67 1015.84 1015.94 1015.86 1015.99 1015.79 1015.50 1015.48 1015.77 1015.91
1012.41 1013.13 1013.57 1014.05 1014.30 1014.40 1014.25 1014.18 1013.94 1014.15 1014.04 1014.14 1014.21 1014.42 1014.37 1013.97 1013.87 1013.61 1013.52 1013.55 1013.75 1014.24 1014.55 1014.82 1015.21 1015.37 1015.81 1016.22 1015.98 1015.67 1015.88 1015.74 1015.77 1015.70 1015.14 1015.86 1016.08 1015.37 1015.06 1015.25 1015.67 1015.30 1015.10
1012.53 1012.99 1013.26 1013.93 1014.31 1014.54 1014.58 1014.38 1014.45 1014.41 1014.37 1014.17 1014.47 1014.09 1013.68 1013.57 1013.37 1013.19 1013.16 1013.24 1013.43 1013.69 1013.93 1014.14 1014.47 1015.05 1015.30 1015.74 1016.00 1015.70 1015.46 1015.43 1015.21 1015.28 1015.58 1015.75 1015.65 1015.19 1015.15 1014.92 1014.68 1014.75 1014.72
Thickness
5807 5799 5788 5789 5785 5784 5784 5783 5782 5780 5778 5776 5772 5768 5766 5764 5764 5763 5763 5761 5761 5760 5760 5760 5761 5761 5761 5762 5760 5758 5757 5755 5754 5751 5750 5748 5747 5745 5744 5745 5747 5746 5741
5811 5797 5788 5784 5783 5781 5781 5780 5778 5776 5775 5774 5770 5768 5765 5763 5762 5760 5761 5761 5759 5757 5756 5759 5761 5761 5760 5761 5760 5759 5757 5755 5754 5752 5750 5749 5745 5744 5745 5746 5748 5743 5740
5810 5797 5788 5783 5781 5777 5777 5777 5775 5772 5772 5770 5770 5766 5764 5763 5761 5759 5758 5758 5758 5756 5756 5758 5759 5760 5760 5760 5760 5759 5757 5755 5754 5752 5753 5758 5751 5746 5746 5745 5744 5742 5741
5805 5795 5787 5778 5777 5776 5777 5776 5774 5772 5770 5767 5767 5764 5763 5761 5759 5758 5757 5757 5758 5757 5756 5756 5758 5759 5758 5759 5759 5758 5757 5755 5753 5753 5759 5763 5756 5746 5746 5746 5744 5742 5740
5800 5796 5787 5781 5778 5776 5775 5774 5772 5770 5767 5765 5764 5763 5761 5760 5757 5757 5756 5755 5756 5756 5754 5754 5756 5757 5757 5757 5757 5756 5756 5755 5753 5755 5757 5760 5759 5749 5746 5745 5744 5742 5742
5802 5797 5783 5779 5775 5773 5772 5770 5767 5767 5764 5761 5760 5759 5757 5758 5756 5755 5753 5754 5754 5754 5753 5753 5754 5755 5755 5756 5753 5755 5755 5754 5754 5761 5757 5755 5761 5750 5746 5745 5745 5743 5742
5798 5792 5779 5775 5771 5772 5770 5767 5763 5762 5762 5759 5757 5755 5754 5754 5753 5752 5751 5751 5752 5753 5753 5752 5752 5752 5752 5753 5751 5752 5753 5753 5759 5759 5759 5757 5757 5749 5746 5744 5743 5742 5741
5794 5787 5776 5769 5768 5767 5767 5767 5763 5761 5759 5757 5754 5752 5750 5749 5750 5750 5748 5749 5750 5751 5752 5750 5751 5750 5750 5749 5750 5749 5750 5751 5755 5759 5760 5758 5753 5749 5746 5743 5741 5740 5740
5789 5784 5775 5770 5765 5764 5764 5764 5761 5761 5759 5755 5753 5752 5750 5748 5745 5744 5745 5746 5748 5749 5750 5749 5749 5747 5747 5746 5746 5746 5746 5748 5757 5757 5758 5759 5751 5747 5745 5743 5740 5738 5737
5786 5783 5777 5772 5766 5764 5764 5760 5758 5757 5757 5755 5753 5751 5750 5747 5744 5741 5742 5745 5745 5745 5747 5748 5746 5743 5743 5742 5740 5742 5743 5745 5753 5757 5753 5757 5751 5746 5745 5742 5739 5737 5736
5780 5780 5777 5771 5767 5764 5764 5760 5755 5753 5751 5752 5751 5749 5748 5752 5749 5744 5744 5743 5742 5743 5745 5746 5745 5743 5738 5740 5739 5740 5740 5745 5750 5757 5753 5751 5748 5746 5743 5741 5739 5737 5735
5775 5776 5776 5772 5764 5762 5760 5758 5755 5754 5753 5753 5755 5753 5751 5753 5750 5746 5742 5739 5740 5741 5743 5744 5743 5742 5740 5738 5740 5740 5741 5746 5748 5751 5755 5749 5746 5745 5744 5741 5739 5737 5736
5776 5775 5774 5771 5766 5762 5764 5758 5752 5749 5749 5751 5752 5751 5748 5747 5743 5744 5743 5739 5740 5741 5748 5747 5746 5746 5745 5742 5743 5741 5743 5744 5746 5749 5753 5747 5745 5745 5744 5740 5738 5736 5735
5777 5776 5774 5771 5765 5763 5760 5757 5752 5749 5748 5749 5748 5747 5743 5743 5740 5739 5744 5736 5736 5745 5750 5751 5748 5749 5746 5743 5742 5740 5741 5740 5745 5747 5750 5745 5744 5744 5743 5741 5738 5735 5733
5781 5779 5774 5770 5764 5761 5760 5759 5755 5755 5753 5751 5748 5745 5742 5741 5739 5735 5737 5734 5736 5739 5745 5745 5749 5750 5748 5746 5742 5741 5743 5740 5739 5740 5745 5745 5743 5744 5743 5741 5738 5735 5734
5784 5780 5776 5769 5766 5762 5761 5760 5757 5756 5751 5749 5750 5748 5743 5743 5738 5736 5730 5726 5731 5735 5746 5749 5746 5747 5747 5745 5742 5742 5741 5743 5741 5742 5742 5748 5744 5744 5744 5742 5737 5735 5733
5785 5781 5776 5771 5767 5764 5762 5761 5760 5761 5755 5754 5751 5745 5745 5743 5741 5733 5730 5722 5731 5735 5738 5742 5743 5743 5741 5742 5740 5742 5740 5743 5742 5742 5742 5747 5750 5745 5744 5741 5737 5734 5731
5786 5777 5777 5776 5771 5764 5763 5761 5761 5761 5755 5752 5750 5753 5745 5744 5741 5738 5735 5732 5736 5735 5738 5743 5744 5743 5740 5737 5738 5740 5745 5741 5741 5742 5742 5744 5747 5750 5747 5743 5741 5738 5735
5786 5779 5774 5773 5770 5765 5761 5762 5759 5758 5756 5756 5754 5754 5748 5744 5741 5738 5740 5739 5740 5740 5742 5742 5742 5741 5737 5736 5737 5739 5740 5739 5740 5740 5741 5744 5743 5745 5750 5750 5744 5740 5739
5786 5780 5776 5774 5770 5765 5761 5758 5759 5758 5756 5755 5754 5752 5749 5747 5744 5741 5738 5738 5738 5741 5743 5743 5740 5742 5738 5735 5737 5737 5737 5739 5739 5741 5743 5741 5741 5742 5745 5748 5745 5742 5742
5778 5776 5772 5766 5765 5764 5760 5756 5754 5754 5755 5751 5753 5748 5744 5743 5739 5738 5740 5739 5736 5734 5736 5739 5737 5731 5734 5734 5727 5735 5737 5737 5735 5741 5743 5738 5740 5742 5743 5745 5745 5744 5746
5774 5770 5763 5754 5754 5757 5762 5758 5758 5754 5754 5752 5751 5746 5742 5740 5737 5734 5736 5737 5735 5732 5730 5731 5731 5729 5733 5736 5725 5730 5723 5734 5737 5739 5743 5741 5744 5742 5745 5747 5745 5745 5747
5770 5765 5753 5755 5758 5758 5758 5756 5755 5754 5752 5752 5751 5747 5743 5738 5737 5734 5733 5732 5731 5727 5725 5727 5727 5723 5719 5729 5724 5722 5718 5721 5733 5738 5736 5741 5745 5743 5746 5749 5747 5748 5750
5770 5767 5760 5754 5755 5757 5757 5756 5753 5751 5749 5750 5748 5746 5737 5736 5734 5734 5733 5731 5726 5724 5719 5718 5719 5717 5712 5713 5718 5726 5726 5728 5724 5720 5730 5733 5739 5740 5746 5750 5750 5750 5750
5770 5765 5761 5757 5753 5753 5755 5755 5753 5749 5751 5750 5747 5741 5737 5736 5734 5734 5734 5731 5729 5723 5720 5718 5715 5714 5711 5709 5714 5719 5721 5725 5727 5722 5724 5723 5729 5743 5749 5748 5745 5750 5752
5766 5763 5761 5755 5751 5751 5751 5751 5749 5748 5746 5746 5741 5739 5740 5737 5736 5735 5734 5731 5728 5724 5721 5720 5718 5714 5713 5710 5711 5716 5719 5718 5721 5724 5719 5720 5724 5733 5741 5745 5749 5748 5748